Location: San Martino di Castrozza
(46.2667°N, 11.8000°E)
Time: 07:37:55
(UTC+00:00)

ARGOS Delta rocket - Pass Details

Date: 23 April 2021
Orbit: 634 x 839 km, 96.5° (Epoch: 07 May)

Event Time Altitude Azimuth Distance (km) Brightness Sun altitude
Rises 01:35:15 0° 11° (NNE) 2,955 8.1 -22.9°
Reaches altitude 10° 01:37:29 10° 13° (NNE) 2,033 7.1 -22.6°
Maximum altitude 01:41:53 81° 100° (E) 648 3.6 -22.1°
Enters shadow 01:42:43 58° 177° (S) 743 3.6 -22.0°
